| time (UTC) | temp C | wind direction | speed KPH | gust KPH | rain 1hr cm | rain 24hr cm | rain mn cm | humidity % | barometer mb |
| 20260831022556 | 32 | 187 | 6.4 | 16.1 | 0.00 | 0.00 | 0.00 | 27 | 1009.9 |
| 20260831022057 | 32 | 196 | 8.0 | 16.1 | 0.00 | 0.00 | 0.00 | 26 | 1010.0 |
| 20260831021602 | 32 | 191 | 6.4 | 14.5 | 0.00 | 0.00 | 0.00 | 26 | 1009.9 |
| 20260831021056 | 32 | 197 | 8.0 | 17.7 | 0.00 | 0.00 | 0.00 | 26 | 1009.8 |
| 20260831020556 | 32 | 188 | 11.3 | 17.7 | 0.00 | 0.00 | 0.00 | 25 | 1009.8 |
| 20260831020156 | 32 | 212 | 9.7 | 17.7 | 0.00 | 0.00 | 0.00 | 25 | 1009.7 |
| 20260831015058 | 33 | 191 | 8.0 | 16.1 | 0.00 | 0.00 | 0.00 | 25 | 1009.6 |
| 20260831014612 | 33 | 180 | 8.0 | 17.7 | 0.00 | 0.00 | 0.00 | 24 | 1009.6 |
| 20260831014058 | 33 | 184 | 8.0 | 17.7 | 0.00 | 0.00 | 0.00 | 24 | 1009.5 |
| 20260831013558 | 33 | 193 | 8.0 | 14.5 | 0.00 | 0.00 | 0.00 | 24 | 1009.5 |
| 20260831013059 | 33 | 190 | 6.4 | 20.9 | 0.00 | 0.00 | 0.00 | 23 | 1009.6 |
| 20260831012558 | 33 | 200 | 11.3 | 20.9 | 0.00 | 0.00 | 0.00 | 23 | 1009.5 |
| 20260831012059 | 33 | 193 | 8.0 | 17.7 | 0.00 | 0.00 | 0.00 | 23 | 1009.5 |
| 20260831011613 | 34 | 200 | 8.0 | 24.1 | 0.00 | 0.00 | 0.00 | 22 | 1009.4 |
| 20260831011057 | 34 | 176 | 14.5 | 24.1 | 0.00 | 0.00 | 0.00 | 22 | 1009.4 |
| 20260831010557 | 34 | 196 | 11.3 | 19.3 | 0.00 | 0.00 | 0.00 | 22 | 1009.4 |
| 20260831010058 | 34 | 184 | 8.0 | 19.3 | 0.00 | 0.00 | 0.00 | 22 | 1009.3 |
| 20260831005058 | 35 | 164 | 9.7 | 25.7 | 0.00 | 0.00 | 0.00 | 21 | 1009.2 |
| 20260831004558 | 35 | 183 | 11.3 | 25.7 | 0.00 | 0.00 | 0.00 | 21 | 1009.2 |
| 20260831004158 | 35 | 198 | 11.3 | 20.9 | 0.00 | 0.00 | 0.00 | 21 | 1009.1 |
| 20260831003557 | 35 | 203 | 12.9 | 22.5 | 0.00 | 0.00 | 0.00 | 22 | 1009.1 |
| 20260831003057 | 35 | 153 | 11.3 | 22.5 | 0.00 | 0.00 | 0.00 | 22 | 1009.1 |
| 20260831002600 | 35 | 159 | 9.7 | 22.5 | 0.00 | 0.00 | 0.00 | 22 | 1009.0 |
| 20260831002059 | 35 | 187 | 11.3 | 24.1 | 0.00 | 0.00 | 0.00 | 22 | 1009.0 |
| 20260831001604 | 35 | 164 | 9.7 | 22.5 | 0.00 | 0.00 | 0.00 | 22 | 1008.9 |
| 20260831001059 | 35 | 200 | 12.9 | 20.9 | 0.00 | 0.00 | 0.00 | 21 | 1008.9 |
| 20260831000557 | 36 | 191 | 8.0 | 19.3 | 0.00 | 0.00 | 0.00 | 19 | 1008.9 |
| 20260830235054 | 36 | 199 | 8.0 | 22.5 | 0.00 | 0.00 | 0.00 | 20 | 1008.9 |
| 20260830234553 | 36 | 187 | 9.7 | 20.9 | 0.00 | 0.00 | 0.00 | 20 | 1008.9 |
| 20260830234053 | 36 | 201 | 12.9 | 20.9 | 0.00 | 0.00 | 0.00 | 20 | 1008.9 |
| 20260830233553 | 36 | 214 | 9.7 | 20.9 | 0.00 | 0.00 | 0.00 | 20 | 1009.0 |
| 20260830233103 | 36 | 171 | 12.9 | 20.9 | 0.00 | 0.00 | 0.00 | 20 | 1009.0 |
| 20260830232556 | 36 | 193 | 12.9 | 25.7 | 0.00 | 0.00 | 0.00 | 21 | 1008.9 |
| 20260830232053 | 36 | 219 | 16.1 | 25.7 | 0.00 | 0.00 | 0.00 | 21 | 1009.0 |
| 20260830231558 | 36 | 198 | 16.1 | 24.1 | 0.00 | 0.00 | 0.00 | 21 | 1008.9 |
| 20260830231052 | 36 | 191 | 11.3 | 30.6 | 0.00 | 0.00 | 0.00 | 21 | 1009.0 |
| 20260830230552 | 36 | 190 | 19.3 | 30.6 | 0.00 | 0.00 | 0.00 | 21 | 1009.0 |
| 20260830230053 | 36 | 193 | 16.1 | 27.4 | 0.00 | 0.00 | 0.00 | 21 | 1008.9 |
| 20260830225056 | 36 | 191 | 11.3 | 20.9 | 0.00 | 0.00 | 0.00 | 20 | 1008.9 |
| 20260830224616 | 36 | 200 | 9.7 | 16.1 | 0.00 | 0.00 | 0.00 | 20 | 1008.9 |
| 20260830224056 | 36 | 210 | 11.3 | 19.3 | 0.00 | 0.00 | 0.00 | 19 | 1009.0 |
| 20260830223555 | 36 | 170 | 12.9 | 19.3 | 0.00 | 0.00 | 0.00 | 20 | 1009.0 |
| 20260830223057 | 36 | 154 | 9.7 | 24.1 | 0.00 | 0.00 | 0.00 | 19 | 1009.0 |
| 20260830222559 | 36 | 202 | 12.9 | 24.1 | 0.00 | 0.00 | 0.00 | 19 | 1009.0 |
| 20260830222054 | 36 | 165 | 14.5 | 22.5 | 0.00 | 0.00 | 0.00 | 19 | 1009.1 |
| 20260830221602 | 36 | 233 | 8.0 | 16.1 | 0.00 | 0.00 | 0.00 | 18 | 1009.2 |
| 20260830221053 | 36 | 258 | 9.7 | 20.9 | 0.00 | 0.00 | 0.00 | 17 | 1009.2 |
| 20260830220553 | 36 | 179 | 9.7 | 24.1 | 0.00 | 0.00 | 0.00 | 18 | 1009.3 |
| 20260830220057 | 36 | 213 | 17.7 | 24.1 | 0.00 | 0.00 | 0.00 | 17 | 1009.3 |
| 20260830215051 | 36 | 177 | 11.3 | 22.5 | 0.00 | 0.00 | 0.00 | 18 | 1009.4 |
| 20260830214556 | 36 | 152 | 12.9 | 22.5 | 0.00 | 0.00 | 0.00 | 18 | 1009.5 |
| 20260830214050 | 36 | 152 | 6.4 | 22.5 | 0.00 | 0.00 | 0.00 | 18 | 1009.4 |
| 20260830213549 | 36 | 192 | 14.5 | 29.0 | 0.00 | 0.00 | 0.00 | 18 | 1009.5 |
| 20260830213049 | 36 | 185 | 16.1 | 29.0 | 0.00 | 0.00 | 0.00 | 18 | 1009.7 |
| 20260830212548 | 36 | 181 | 8.0 | 22.5 | 0.00 | 0.00 | 0.00 | 18 | 1009.7 |
| 20260830212051 | 36 | 203 | 11.3 | 24.1 | 0.00 | 0.00 | 0.00 | 19 | 1009.8 |
| 20260830211547 | 36 | 150 | 9.7 | 24.1 | 0.00 | 0.00 | 0.00 | 18 | 1009.9 |
| 20260830211049 | 36 | 190 | 11.3 | 24.1 | 0.00 | 0.00 | 0.00 | 19 | 1009.8 |
| 20260830210546 | 36 | 174 | 14.5 | 27.4 | 0.00 | 0.00 | 0.00 | 18 | 1010.0 |
| 20260830210044 | 36 | 180 | 16.1 | 27.4 | 0.00 | 0.00 | 0.00 | 20 | 1010.0 |
| 20260830205049 | 35 | 164 | 11.3 | 30.6 | 0.00 | 0.00 | 0.00 | 20 | 1010.3 |
| 20260830204546 | 35 | 226 | 12.9 | 30.6 | 0.00 | 0.00 | 0.00 | 21 | 1010.3 |
| 20260830204047 | 36 | 215 | 11.3 | 19.3 | 0.00 | 0.00 | 0.00 | 22 | 1010.4 |
| 20260830203544 | 36 | 191 | 9.7 | 24.1 | 0.00 | 0.00 | 0.00 | 21 | 1010.5 |
| 20260830203043 | 36 | 178 | 11.3 | 29.0 | 0.00 | 0.00 | 0.00 | 20 | 1010.7 |
| 20260830202543 | 36 | 196 | 14.5 | 29.0 | 0.00 | 0.00 | 0.00 | 21 | 1010.8 |
| 20260830202041 | 36 | 154 | 11.3 | 22.5 | 0.00 | 0.00 | 0.00 | 20 | 1010.8 |
| 20260830201542 | 36 | 177 | 9.7 | 22.5 | 0.00 | 0.00 | 0.00 | 19 | 1011.0 |
| 20260830201039 | 35 | 252 | 8.0 | 27.4 | 0.00 | 0.00 | 0.00 | 20 | 1011.0 |
| 20260830200541 | 35 | 216 | 16.1 | 30.6 | 0.00 | 0.00 | 0.00 | 20 | 1011.2 |
| 20260830200038 | 35 | 198 | 11.3 | 30.6 | 0.00 | 0.00 | 0.00 | 22 | 1011.1 |
| 20260830195053 | 35 | 173 | 11.3 | 24.1 | 0.00 | 0.00 | 0.00 | 22 | 1011.4 |
| 20260830194549 | 35 | 164 | 12.9 | 24.1 | 0.00 | 0.00 | 0.00 | 21 | 1011.4 |
| 20260830194051 | 35 | 202 | 12.9 | 25.7 | 0.00 | 0.00 | 0.00 | 22 | 1011.5 |
| 20260830193546 | 35 | 189 | 14.5 | 25.7 | 0.00 | 0.00 | 0.00 | 23 | 1011.6 |
| 20260830193043 | 35 | 201 | 9.7 | 24.1 | 0.00 | 0.00 | 0.00 | 24 | 1011.7 |
| 20260830192542 | 34 | 198 | 4.8 | 24.1 | 0.00 | 0.00 | 0.00 | 25 | 1011.8 |
| 20260830192040 | 34 | 208 | 16.1 | 27.4 | 0.00 | 0.00 | 0.00 | 25 | 1011.8 |
| 20260830191540 | 34 | 213 | 14.5 | 27.4 | 0.00 | 0.00 | 0.00 | 24 | 1011.8 |
| 20260830191039 | 34 | 239 | 12.9 | 24.1 | 0.00 | 0.00 | 0.00 | 26 | 1011.8 |
| 20260830190538 | 34 | 231 | 11.3 | 25.7 | 0.00 | 0.00 | 0.00 | 25 | 1012.0 |
| 20260830190037 | 34 | 271 | 12.9 | 30.6 | 0.00 | 0.00 | 0.00 | 27 | 1011.9 |
| 20260830185024 | 33 | 214 | 11.3 | 24.1 | 0.00 | 0.00 | 0.00 | 28 | 1012.0 |
| 20260830184524 | 33 | 212 | 12.9 | 27.4 | 0.00 | 0.00 | 0.00 | 28 | 1012.1 |
| 20260830184023 | 33 | 227 | 17.7 | 29.0 | 0.00 | 0.00 | 0.00 | 28 | 1012.1 |
| 20260830183522 | 33 | 185 | 17.7 | 29.0 | 0.00 | 0.00 | 0.00 | 29 | 1012.1 |
| 20260830183020 | 33 | 225 | 11.3 | 25.7 | 0.00 | 0.00 | 0.00 | 30 | 1012.2 |
| 20260830182519 | 33 | 210 | 17.7 | 27.4 | 0.00 | 0.00 | 0.00 | 30 | 1012.5 |
| 20260830182018 | 33 | 214 | 17.7 | 29.0 | 0.00 | 0.00 | 0.00 | 31 | 1012.5 |
| 20260830181516 | 33 | 217 | 12.9 | 29.0 | 0.00 | 0.00 | 0.00 | 31 | 1012.6 |
| 20260830181015 | 33 | 196 | 12.9 | 30.6 | 0.00 | 0.00 | 0.00 | 30 | 1012.7 |
| 20260830180513 | 33 | 207 | 16.1 | 30.6 | 0.00 | 0.00 | 0.00 | 31 | 1012.9 |
| 20260830180013 | 33 | 223 | 16.1 | 27.4 | 0.00 | 0.00 | 0.00 | 30 | 1012.9 |
| 20260830175009 | 33 | 218 | 12.9 | 27.4 | 0.00 | 0.00 | 0.00 | 33 | 1013.0 |
| 20260830174510 | 32 | 210 | 17.7 | 27.4 | 0.00 | 0.00 | 0.00 | 34 | 1013.0 |
| 20260830174006 | 32 | 177 | 16.1 | 29.0 | 0.00 | 0.00 | 0.00 | 34 | 1013.1 |
| 20260830173506 | 32 | 205 | 16.1 | 30.6 | 0.00 | 0.00 | 0.00 | 34 | 1013.1 |
| 20260830173005 | 32 | 186 | 14.5 | 25.7 | 0.00 | 0.00 | 0.00 | 35 | 1013.2 |
| 20260830172509 | 32 | 207 | 16.1 | 30.6 | 0.00 | 0.00 | 0.00 | 35 | 1013.2 |
| 20260830172004 | 32 | 179 | 17.7 | 30.6 | 0.00 | 0.00 | 0.00 | 35 | 1013.3 |
| 20260830171504 | 32 | 194 | 14.5 | 25.7 | 0.00 | 0.00 | 0.00 | 36 | 1013.3 |
| 20260830171004 | 32 | 199 | 17.7 | 25.7 | 0.00 | 0.00 | 0.00 | 36 | 1013.5 |
| 20260830170502 | 31 | 186 | 14.5 | 25.7 | 0.00 | 0.00 | 0.00 | 36 | 1013.4 |
| 20260830170002 | 31 | 196 | 16.1 | 25.7 | 0.00 | 0.00 | 0.00 | 37 | 1013.4 |
| 20260830165159 | 31 | 205 | 17.7 | 27.4 | 0.00 | 0.00 | 0.00 | 38 | 1013.4 |
| 20260830164607 | 31 | 245 | 14.5 | 24.1 | 0.00 | 0.00 | 0.00 | 39 | 1013.4 |
| 20260830164057 | 31 | 208 | 12.9 | 29.0 | 0.00 | 0.00 | 0.00 | 40 | 1013.6 |
| 20260830163558 | 31 | 175 | 14.5 | 29.0 | 0.00 | 0.00 | 0.00 | 40 | 1013.7 |
| 20260830163059 | 31 | 208 | 14.5 | 25.7 | 0.00 | 0.00 | 0.00 | 40 | 1013.6 |
| 20260830162556 | 31 | 171 | 14.5 | 25.7 | 0.00 | 0.00 | 0.00 | 41 | 1013.5 |
| 20260830162057 | 30 | 199 | 11.3 | 22.5 | 0.00 | 0.00 | 0.00 | 43 | 1013.6 |
| 20260830161606 | 30 | 202 | 12.9 | 22.5 | 0.00 | 0.00 | 0.00 | 43 | 1013.6 |
| 20260830161052 | 30 | 198 | 12.9 | 20.9 | 0.00 | 0.00 | 0.00 | 43 | 1013.6 |
| 20260830160553 | 30 | 179 | 12.9 | 25.7 | 0.00 | 0.00 | 0.00 | 45 | 1013.7 |
| 20260830160051 | 30 | 198 | 16.1 | 25.7 | 0.00 | 0.00 | 0.00 | 45 | 1013.7 |
| 20260830155059 | 29 | 182 | 6.4 | 24.1 | 0.00 | 0.00 | 0.00 | 47 | 1013.7 |
| 20260830154558 | 29 | 184 | 17.7 | 24.1 | 0.00 | 0.00 | 0.00 | 46 | 1013.7 |
| 20260830154059 | 29 | 195 | 11.3 | 19.3 | 0.00 | 0.00 | 0.00 | 47 | 1013.7 |
| 20260830153600 | 28 | 162 | 8.0 | 20.9 | 0.00 | 0.00 | 0.00 | 48 | 1013.7 |
| 20260830153053 | 28 | 179 | 14.5 | 20.9 | 0.00 | 0.00 | 0.00 | 48 | 1013.8 |
| 20260830152552 | 28 | 189 | 9.7 | 16.1 | 0.00 | 0.00 | 0.00 | 50 | 1013.7 |
| 20260830152056 | 28 | 191 | 8.0 | 19.3 | 0.00 | 0.00 | 0.00 | 51 | 1013.9 |
| 20260830151552 | 28 | 189 | 8.0 | 19.3 | 0.00 | 0.00 | 0.00 | 51 | 1013.9 |
| 20260830151052 | 27 | 155 | 8.0 | 17.7 | 0.00 | 0.00 | 0.00 | 52 | 1013.9 |
| 20260830150552 | 27 | 154 | 9.7 | 20.9 | 0.00 | 0.00 | 0.00 | 52 | 1013.9 |
| 20260830150055 | 27 | 201 | 11.3 | 20.9 | 0.00 | 0.00 | 0.00 | 53 | 1013.8 |
| 20260830145043 | 27 | 212 | 11.3 | 24.1 | 0.00 | 0.00 | 0.00 | 53 | 1014.0 |
| 20260830144543 | 27 | 186 | 12.9 | 24.1 | 0.00 | 0.00 | 0.00 | 54 | 1014.0 |
| 20260830144045 | 27 | 148 | 9.7 | 17.7 | 0.00 | 0.00 | 0.00 | 54 | 1014.0 |
| 20260830143542 | 26 | 179 | 8.0 | 19.3 | 0.00 | 0.00 | 0.00 | 55 | 1014.0 |
| 20260830143101 | 26 | 190 | 11.3 | 24.1 | 0.00 | 0.00 | 0.00 | 55 | 1014.0 |
| 20260830142542 | 26 | 198 | 11.3 | 22.5 | 0.00 | 0.00 | 0.00 | 55 | 1014.0 |
| 20260830142042 | 26 | 168 | 9.7 | 25.7 | 0.00 | 0.00 | 0.00 | 56 | 1014.1 |
| 20260830141543 | 26 | 189 | 14.5 | 25.7 | 0.00 | 0.00 | 0.00 | 56 | 1014.1 |
| 20260830141044 | 26 | 173 | 12.9 | 22.5 | 0.00 | 0.00 | 0.00 | 56 | 1014.1 |
| 20260830140541 | 26 | 185 | 14.5 | 22.5 | 0.00 | 0.00 | 0.00 | 56 | 1014.1 |
| 20260830140047 | 26 | 200 | 11.3 | 19.3 | 0.00 | 0.00 | 0.00 | 57 | 1014.1 |
| 20260830135053 | 25 | 176 | 9.7 | 19.3 | 0.00 | 0.00 | 0.00 | 58 | 1013.9 |
| 20260830134553 | 25 | 145 | 6.4 | 17.7 | 0.00 | 0.00 | 0.00 | 58 | 1014.0 |
| 20260830134053 | 25 | 179 | 8.0 | 17.7 | 0.00 | 0.00 | 0.00 | 58 | 1014.0 |
| 20260830133552 | 25 | 161 | 8.0 | 17.7 | 0.00 | 0.00 | 0.00 | 58 | 1014.0 |
| 20260830133052 | 25 | 173 | 6.4 | 16.1 | 0.00 | 0.00 | 0.00 | 58 | 1013.9 |
| 20260830132552 | 25 | 176 | 4.8 | 12.9 | 0.00 | 0.00 | 0.00 | 59 | 1013.9 |
| 20260830132052 | 25 | 168 | 6.4 | 12.9 | 0.00 | 0.00 | 0.00 | 59 | 1013.8 |
| 20260830131551 | 25 | 158 | 4.8 | 11.3 | 0.00 | 0.00 | 0.00 | 59 | 1013.9 |
| 20260830131052 | 25 | 149 | 3.2 | 11.3 | 0.00 | 0.00 | 0.00 | 59 | 1013.8 |
| 20260830130552 | 25 | 150 | 4.8 | 9.7 | 0.00 | 0.00 | 0.00 | 59 | 1013.8 |
| 20260830125040 | 25 | 156 | 4.8 | 11.3 | 0.00 | 0.00 | 0.00 | 60 | 1013.6 |
| 20260830124539 | 25 | 162 | 4.8 | 12.9 | 0.00 | 0.00 | 0.00 | 59 | 1013.5 |
| 20260830124039 | 25 | 181 | 4.8 | 17.7 | 0.00 | 0.00 | 0.00 | 59 | 1013.4 |
| 20260830123538 | 25 | 187 | 9.7 | 17.7 | 0.00 | 0.00 | 0.00 | 59 | 1013.4 |
| 20260830123044 | 25 | 191 | 9.7 | 17.7 | 0.00 | 0.00 | 0.00 | 59 | 1013.4 |
| 20260830122538 | 25 | 189 | 6.4 | 12.9 | 0.00 | 0.00 | 0.00 | 59 | 1013.5 |
| 20260830122041 | 25 | 181 | 6.4 | 16.1 | 0.00 | 0.00 | 0.00 | 59 | 1013.4 |
| 20260830121537 | 25 | 197 | 8.0 | 16.1 | 0.00 | 0.00 | 0.00 | 59 | 1013.4 |
| 20260830121040 | 25 | 193 | 8.0 | 14.5 | 0.00 | 0.00 | 0.00 | 59 | 1013.3 |
| 20260830120535 | 25 | 193 | 6.4 | 14.5 | 0.00 | 0.00 | 0.00 | 58 | 1013.2 |
| 20260830120035 | 25 | 177 | 6.4 | 14.5 | 0.00 | 0.00 | 0.00 | 58 | 1013.2 |
| 20260830115036 | 25 | 157 | 6.4 | 12.9 | 0.00 | 0.00 | 0.00 | 58 | 1013.1 |
| 20260830114533 | 25 | 210 | 6.4 | 12.9 | 0.00 | 0.00 | 0.00 | 57 | 1013.1 |
| 20260830114033 | 25 | 174 | 6.4 | 12.9 | 0.00 | 0.00 | 0.00 | 57 | 1013.1 |
| 20260830113532 | 25 | 183 | 6.4 | 12.9 | 0.00 | 0.00 | 0.00 | 57 | 1013.0 |
| 20260830113034 | 25 | 187 | 6.4 | 12.9 | 0.00 | 0.00 | 0.00 | 56 | 1013.0 |
| 20260830112532 | 25 | 180 | 6.4 | 12.9 | 0.00 | 0.00 | 0.00 | 56 | 1013.0 |
| 20260830112030 | 25 | 179 | 6.4 | 12.9 | 0.00 | 0.00 | 0.00 | 55 | 1013.0 |
| 20260830111530 | 25 | 193 | 4.8 | 14.5 | 0.00 | 0.00 | 0.00 | 55 | 1013.0 |
| 20260830111030 | 25 | 168 | 6.4 | 14.5 | 0.00 | 0.00 | 0.00 | 55 | 1013.1 |
| 20260830110530 | 25 | 187 | 4.8 | 14.5 | 0.00 | 0.00 | 0.00 | 54 | 1013.0 |
| 20260830110030 | 25 | 191 | 6.4 | 14.5 | 0.00 | 0.00 | 0.00 | 54 | 1012.9 |
| 20260830105028 | 25 | 183 | 4.8 | 11.3 | 0.00 | 0.00 | 0.00 | 53 | 1013.0 |
| 20260830104528 | 25 | 183 | 4.8 | 11.3 | 0.00 | 0.00 | 0.00 | 53 | 1013.0 |
| 20260830104027 | 26 | 187 | 4.8 | 11.3 | 0.00 | 0.00 | 0.00 | 52 | 1012.9 |
| 20260830103531 | 26 | 199 | 4.8 | 14.5 | 0.00 | 0.00 | 0.00 | 52 | 1012.9 |
| 20260830103027 | 26 | 183 | 4.8 | 9.7 | 0.00 | 0.00 | 0.00 | 51 | 1012.9 |
| 20260830102526 | 26 | 184 | 4.8 | 11.3 | 0.00 | 0.00 | 0.00 | 51 | 1012.9 |
| 20260830102025 | 26 | 175 | 6.4 | 16.1 | 0.00 | 0.00 | 0.00 | 50 | 1012.8 |
| 20260830101524 | 26 | 168 | 8.0 | 16.1 | 0.00 | 0.00 | 0.00 | 50 | 1012.7 |
| 20260830101024 | 26 | 186 | 4.8 | 11.3 | 0.00 | 0.00 | 0.00 | 49 | 1012.8 |
| 20260830100523 | 26 | 183 | 4.8 | 12.9 | 0.00 | 0.00 | 0.00 | 49 | 1012.9 |
| 20260830100025 | 26 | 196 | 4.8 | 14.5 | 0.00 | 0.00 | 0.00 | 48 | 1012.8 |
| 20260830095026 | 26 | 192 | 6.4 | 14.5 | 0.00 | 0.00 | 0.00 | 48 | 1012.7 |
| 20260830094530 | 26 | 189 | 6.4 | 14.5 | 0.00 | 0.00 | 0.00 | 47 | 1012.8 |
| 20260830094025 | 26 | 189 | 8.0 | 17.7 | 0.00 | 0.00 | 0.00 | 47 | 1012.8 |
| 20260830093524 | 27 | 196 | 9.7 | 24.1 | 0.00 | 0.00 | 0.00 | 47 | 1012.7 |
| 20260830093024 | 27 | 198 | 6.4 | 24.1 | 0.00 | 0.00 | 0.00 | 47 | 1012.7 |
| 20260830092522 | 27 | 200 | 8.0 | 17.7 | 0.00 | 0.00 | 0.00 | 46 | 1012.7 |
| 20260830092022 | 27 | 212 | 11.3 | 17.7 | 0.00 | 0.00 | 0.00 | 46 | 1012.7 |
| 20260830091522 | 27 | 168 | 8.0 | 22.5 | 0.00 | 0.00 | 0.00 | 46 | 1012.6 |
| 20260830091021 | 27 | 199 | 14.5 | 22.5 | 0.00 | 0.00 | 0.00 | 45 | 1012.6 |
| 20260830090519 | 27 | 162 | 9.7 | 24.1 | 0.00 | 0.00 | 0.00 | 45 | 1012.5 |
| 20260830090021 | 27 | 195 | 14.5 | 24.1 | 0.00 | 0.00 | 0.00 | 44 | 1012.5 |
| 20260830085017 | 27 | 189 | 11.3 | 22.5 | 0.00 | 0.00 | 0.00 | 44 | 1012.5 |
| 20260830084517 | 27 | 179 | 11.3 | 20.9 | 0.00 | 0.00 | 0.00 | 43 | 1012.4 |
| 20260830084017 | 27 | 192 | 9.7 | 20.9 | 0.00 | 0.00 | 0.00 | 43 | 1012.5 |
| 20260830083518 | 27 | 191 | 9.7 | 22.5 | 0.00 | 0.00 | 0.00 | 42 | 1012.5 |
| 20260830083015 | 27 | 185 | 11.3 | 25.7 | 0.00 | 0.00 | 0.00 | 42 | 1012.6 |
| 20260830082515 | 27 | 187 | 16.1 | 25.7 | 0.00 | 0.00 | 0.00 | 41 | 1012.6 |
| 20260830082012 | 27 | 215 | 12.9 | 22.5 | 0.00 | 0.00 | 0.00 | 41 | 1012.7 |
| 20260830081525 | 27 | 189 | 12.9 | 22.5 | 0.00 | 0.00 | 0.00 | 40 | 1012.7 |
| 20260830081011 | 27 | 196 | 9.7 | 22.5 | 0.00 | 0.00 | 0.00 | 40 | 1012.7 |
| 20260830080511 | 27 | 208 | 11.3 | 17.7 | 0.00 | 0.00 | 0.00 | 40 | 1012.8 |
| 20260830080011 | 27 | 179 | 9.7 | 17.7 | 0.00 | 0.00 | 0.00 | 40 | 1012.8 |
| 20260830075018 | 27 | 193 | 11.3 | 17.7 | 0.00 | 0.00 | 0.00 | 40 | 1012.8 |
| 20260830074523 | 27 | 191 | 6.4 | 14.5 | 0.00 | 0.00 | 0.00 | 39 | 1012.9 |
| 20260830074018 | 27 | 190 | 6.4 | 14.5 | 0.00 | 0.00 | 0.00 | 39 | 1012.9 |
| 20260830073518 | 27 | 170 | 6.4 | 14.5 | 0.00 | 0.00 | 0.00 | 39 | 1012.9 |
| 20260830073022 | 27 | 181 | 4.8 | 14.5 | 0.00 | 0.00 | 0.00 | 39 | 1012.9 |
| 20260830072518 | 27 | 158 | 4.8 | 11.3 | 0.00 | 0.00 | 0.00 | 39 | 1012.9 |
| 20260830072017 | 27 | 161 | 4.8 | 11.3 | 0.00 | 0.00 | 0.00 | 39 | 1012.9 |
| 20260830071517 | 27 | 166 | 6.4 | 9.7 | 0.00 | 0.00 | 0.00 | 39 | 1012.9 |
| 20260830071017 | 27 | 166 | 4.8 | 11.3 | 0.00 | 0.00 | 0.00 | 39 | 1012.9 |
| 20260830070516 | 27 | 185 | 4.8 | 11.3 | 0.00 | 0.00 | 0.00 | 39 | 1012.9 |
| 20260830070016 | 27 | 187 | 4.8 | 8.0 | 0.00 | 0.00 | 0.00 | 39 | 1013.0 |
| 20260830065010 | 27 | 189 | 3.2 | 8.0 | 0.00 | 0.00 | 0.00 | 39 | 1012.9 |
| 20260830064506 | 27 | 188 | 3.2 | 8.0 | 0.00 | 0.00 | 0.00 | 39 | 1013.0 |
| 20260830064005 | 28 | 187 | 4.8 | 9.7 | 0.00 | 0.00 | 0.00 | 38 | 1013.0 |
| 20260830063506 | 28 | 168 | 3.2 | 8.0 | 0.00 | 0.00 | 0.00 | 38 | 1013.0 |
| 20260830063010 | 28 | 181 | 3.2 | 9.7 | 0.00 | 0.00 | 0.00 | 38 | 1013.1 |
| 20260830062504 | 28 | 193 | 4.8 | 9.7 | 0.00 | 0.00 | 0.00 | 38 | 1013.1 |
| 20260830062006 | 28 | 169 | 4.8 | 14.5 | 0.00 | 0.00 | 0.00 | 38 | 1013.2 |
| 20260830061502 | 28 | 194 | 6.4 | 14.5 | 0.00 | 0.00 | 0.00 | 38 | 1013.1 |
| 20260830061002 | 28 | 169 | 4.8 | 9.7 | 0.00 | 0.00 | 0.00 | 37 | 1013.1 |
| 20260830060502 | 28 | 194 | 4.8 | 12.9 | 0.00 | 0.00 | 0.00 | 37 | 1013.1 |
| 20260830060101 | 28 | 186 | 6.4 | 12.9 | 0.00 | 0.00 | 0.00 | 37 | 1013.2 |
| 20260830055659 | 29 | 169 | 4.8 | 11.3 | 0.00 | 0.00 | 0.00 | 35 | 1013.2 |
| 20260830055058 | 29 | 164 | 4.8 | 14.5 | 0.00 | 0.00 | 0.00 | 35 | 1013.1 |
| 20260830054557 | 30 | 177 | 6.4 | 17.7 | 0.00 | 0.00 | 0.00 | 35 | 1013.0 |
| 20260830054056 | 30 | 196 | 8.0 | 16.1 | 0.00 | 0.00 | 0.00 | 35 | 1013.1 |
| 20260830053555 | 30 | 195 | 8.0 | 20.9 | 0.00 | 0.00 | 0.00 | 35 | 1013.1 |
| 20260830053057 | 30 | 199 | 12.9 | 20.9 | 0.00 | 0.00 | 0.00 | 34 | 1013.1 |
| 20260830052554 | 30 | 196 | 9.7 | 19.3 | 0.00 | 0.00 | 0.00 | 34 | 1013.1 |
| 20260830052052 | 30 | 192 | 8.0 | 17.7 | 0.00 | 0.00 | 0.00 | 34 | 1013.2 |
| 20260830051552 | 30 | 199 | 9.7 | 16.1 | 0.00 | 0.00 | 0.00 | 35 | 1013.2 |
| 20260830051051 | 29 | 189 | 6.4 | 12.9 | 0.00 | 0.00 | 0.00 | 35 | 1013.2 |
| 20260830050550 | 30 | 187 | 6.4 | 9.7 | 0.00 | 0.00 | 0.00 | 35 | 1013.2 |
| 20260830050049 | 30 | 189 | 4.8 | 8.0 | 0.00 | 0.00 | 0.00 | 34 | 1013.2 |
| 20260830045648 | 30 | 145 | 4.8 | 14.5 | 0.00 | 0.00 | 0.00 | 34 | 1013.1 |
| 20260830045051 | 30 | 191 | 4.8 | 14.5 | 0.00 | 0.00 | 0.00 | 33 | 1013.2 |
| 20260830044550 | 30 | 193 | 6.4 | 17.7 | 0.00 | 0.00 | 0.00 | 33 | 1013.2 |
| 20260830044048 | 30 | 193 | 9.7 | 17.7 | 0.00 | 0.00 | 0.00 | 33 | 1013.1 |
| 20260830043548 | 30 | 185 | 8.0 | 17.7 | 0.00 | 0.00 | 0.00 | 33 | 1013.1 |
| 20260830043048 | 30 | 188 | 11.3 | 16.1 | 0.00 | 0.00 | 0.00 | 32 | 1013.1 |
| 20260830042547 | 31 | 196 | 8.0 | 17.7 | 0.00 | 0.00 | 0.00 | 32 | 1013.1 |
| 20260830042047 | 31 | 199 | 9.7 | 19.3 | 0.00 | 0.00 | 0.00 | 32 | 1013.1 |
| 20260830041605 | 31 | 196 | 9.7 | 19.3 | 0.00 | 0.00 | 0.00 | 32 | 1013.1 |
| 20260830041146 | 31 | 189 | 9.7 | 19.3 | 0.00 | 0.00 | 0.00 | 31 | 1013.2 |
| 20260830040546 | 31 | 208 | 11.3 | 19.3 | 0.00 | 0.00 | 0.00 | 31 | 1013.1 |
| 20260830040047 | 31 | 191 | 9.7 | 17.7 | 0.00 | 0.00 | 0.00 | 31 | 1013.0 |
| 20260830035646 | 31 | 198 | 11.3 | 19.3 | 0.00 | 0.00 | 0.00 | 31 | 1013.0 |
| 20260830035052 | 31 | 187 | 12.9 | 19.3 | 0.00 | 0.00 | 0.00 | 31 | 1013.0 |
| 20260830034550 | 31 | 202 | 9.7 | 19.3 | 0.00 | 0.00 | 0.00 | 30 | 1013.0 |
| 20260830034048 | 31 | 208 | 11.3 | 19.3 | 0.00 | 0.00 | 0.00 | 30 | 1013.0 |
| 20260830033552 | 31 | 191 | 8.0 | 16.1 | 0.00 | 0.00 | 0.00 | 30 | 1013.0 |
| 20260830033052 | 31 | 191 | 6.4 | 16.1 | 0.00 | 0.00 | 0.00 | 30 | 1012.9 |
| 20260830032548 | 31 | 206 | 6.4 | 12.9 | 0.00 | 0.00 | 0.00 | 30 | 1012.9 |
| 20260830032048 | 31 | 187 | 4.8 | 12.9 | 0.00 | 0.00 | 0.00 | 30 | 1012.8 |
| 20260830031548 | 31 | 191 | 4.8 | 19.3 | 0.00 | 0.00 | 0.00 | 29 | 1012.7 |
| 20260830031049 | 31 | 210 | 9.7 | 19.3 | 0.00 | 0.00 | 0.00 | 29 | 1012.6 |
| 20260830030551 | 31 | 193 | 9.7 | 16.1 | 0.00 | 0.00 | 0.00 | 29 | 1012.6 |
| 20260830030113 | 31 | 193 | 8.0 | 16.1 | 0.00 | 0.00 | 0.00 | 29 | 1012.5 |
| 20260830025649 | 31 | 194 | 4.8 | 12.9 | 0.00 | 0.00 | 0.00 | 30 | 1012.4 |
| 20260830025045 | 31 | 194 | 4.8 | 12.9 | 0.00 | 0.00 | 0.00 | 30 | 1012.4 |
| 20260830024545 | 31 | 188 | 4.8 | 12.9 | 0.00 | 0.00 | 0.00 | 29 | 1012.3 |
| 20260830024048 | 32 | 188 | 4.8 | 12.9 | 0.00 | 0.00 | 0.00 | 29 | 1012.2 |
| 20260830023548 | 32 | 191 | 4.8 | 9.7 | 0.00 | 0.00 | 0.00 | 29 | 1012.1 |
| 20260830023051 | 32 | 196 | 4.8 | 9.7 | 0.00 | 0.00 | 0.00 | 29 | 1012.0 |